owner,sensor,date,latitude,longitude,vertical_datum,direction_of_sea_water_velocity,sea_water_speed,upward_sea_water_velocity,qcFlag 
TABS,ioos:station:wmo:42050:1,2017-04-01T00:00:00Z,28.8425,-94.2433,2.0,217.0590358,13.30807274,-99999.0,'11111222,11111222,99999999' 
TABS,ioos:station:wmo:42050:1,2017-04-01T00:30:00Z,28.8425,-94.2433,2.0,207.6233477,16.218733,-99999.0,'11111222,11111222,99999999' 
TABS,ioos:station:wmo:42050:1,2017-04-01T01:00:00Z,28.8425,-94.2433,2.0,218.3794678,19.81087832,-99999.0,'11111222,11111222,99999999' 
TABS,ioos:station:wmo:42050:1,2017-04-01T01:30:00Z,28.8425,-94.2433,2.0,217.0994187,25.92820858,-99999.0,'11111222,11111222,99999999' 
TABS,ioos:station:wmo:42050:1,2017-04-01T02:00:00Z,28.8425,-94.2433,2.0,231.3182688,24.8644264,-99999.0,'11111222,11111222,99999999' 
TABS,ioos:station:wmo:42050:1,2017-04-01T02:30:00Z,28.8425,-94.2433,2.0,233.3088008,23.68211561,-99999.0,'11111222,11111222,99999999' 
TABS,ioos:station:wmo:42050:1,2017-04-01T03:00:00Z,28.8425,-94.2433,2.0,241.9599191,25.71882773,-99999.0,'11111222,11111222,99999999' 
TABS,ioos:station:wmo:42050:1,2017-04-01T03:30:00Z,28.8425,-94.2433,2.0,249.1932327,27.05431943,-99999.0,'11111222,11111222,99999999' 
TABS,ioos:station:wmo:42050:1,2017-04-01T04:00:00Z,28.8425,-94.2433,2.0,253.0703836,27.67948699,-99999.0,'11111222,11111222,99999999' 
TABS,ioos:station:wmo:42050:1,2017-04-01T04:30:00Z,28.8425,-94.2433,2.0,259.6100707,27.83639344,-99999.0,'11111222,11111222,99999999' 
TABS,ioos:station:wmo:42050:1,2017-04-01T05:00:00Z,28.8425,-94.2433,2.0,267.3370792,26.90904866,-99999.0,'11111222,11111222,99999999' 
TABS,ioos:station:wmo:42050:1,2017-04-01T05:30:00Z,28.8425,-94.2433,2.0,279.926018,22.56778678,-99999.0,'11111222,11111222,99999999' 
TABS,ioos:station:wmo:42050:1,2017-04-01T06:00:00Z,28.8425,-94.2433,2.0,277.6718431,21.19974056,-99999.0,'11111222,11111222,99999999' 
TABS,ioos:station:wmo:42050:1,2017-04-01T06:30:00Z,28.8425,-94.2433,2.0,279.9942425,18.7850366,-99999.0,'11111222,11111222,99999999' 
TABS,ioos:station:wmo:42050:1,2017-04-01T07:00:00Z,28.8425,-94.2433,2.0,293.4605023,17.83422552,-99999.0,'11111222,11111222,99999999' 
TABS,ioos:station:wmo:42050:1,2017-04-01T07:30:00Z,28.8425,-94.2433,2.0,298.5328074,16.41347008,-99999.0,'11111222,11111222,99999999' 
TABS,ioos:station:wmo:42050:1,2017-04-01T08:00:00Z,28.8425,-94.2433,2.0,288.8527924,17.79460873,-99999.0,'11111222,11111222,99999999' 
TABS,ioos:station:wmo:42050:1,2017-04-01T08:30:00Z,28.8425,-94.2433,2.0,297.3660495,16.64244273,-99999.0,'11111222,11111222,99999999' 
TABS,ioos:station:wmo:42050:1,2017-04-01T09:00:00Z,28.8425,-94.2433,2.0,309.7391403,17.58203629,-99999.0,'11111222,11111222,99999999' 
TABS,ioos:station:wmo:42050:1,2017-04-01T09:30:00Z,28.8425,-94.2433,2.0,295.5634646,14.32196914,-99999.0,'11111222,11111222,99999999' 
TABS,ioos:station:wmo:42050:1,2017-04-01T10:00:00Z,28.8425,-94.2433,2.0,311.2435618,13.16633586,-99999.0,'11111222,11111222,99999999' 
TABS,ioos:station:wmo:42050:1,2017-04-01T10:30:00Z,28.8425,-94.2433,2.0,333.9697186,12.46438526,-99999.0,'11111222,11111222,99999999' 
TABS,ioos:station:wmo:42050:1,2017-04-01T11:00:00Z,28.8425,-94.2433,2.0,325.9543527,9.377387696,-99999.0,'11133222,11111222,99999999' 
TABS,ioos:station:wmo:42050:1,2017-04-01T11:30:00Z,28.8425,-94.2433,2.0,312.3909914,10.87243303,-99999.0,'11111222,11111222,99999999' 
TABS,ioos:station:wmo:42050:1,2017-04-01T12:00:00Z,28.8425,-94.2433,2.0,318.953679,8.512608296,-99999.0,'11133222,11111222,99999999' 
TABS,ioos:station:wmo:42050:1,2017-04-01T12:30:00Z,28.8425,-94.2433,2.0,302.6149221,8.274811176,-99999.0,'11133222,11111222,99999999' 
TABS,ioos:station:wmo:42050:1,2017-04-01T13:00:00Z,28.8425,-94.2433,2.0,322.5175462,6.918395768,-99999.0,'11133222,11111222,99999999' 
TABS,ioos:station:wmo:42050:1,2017-04-01T13:30:00Z,28.8425,-94.2433,2.0,303.1618129,5.411330705,-99999.0,'11133222,11111222,99999999' 
TABS,ioos:station:wmo:42050:1,2017-04-01T14:00:00Z,28.8425,-94.2433,2.0,297.9470408,7.233546848,-99999.0,'11133222,11111222,99999999' 
TABS,ioos:station:wmo:42050:1,2017-04-01T14:30:00Z,28.8425,-94.2433,2.0,269.4955248,3.410131962,-99999.0,'11133222,11111222,99999999' 
TABS,ioos:station:wmo:42050:1,2017-04-01T15:00:00Z,28.8425,-94.2433,2.0,272.8857325,8.741081169,-99999.0,'11133222,11111222,99999999' 
TABS,ioos:station:wmo:42050:1,2017-04-01T15:30:00Z,28.8425,-94.2433,2.0,284.1081914,5.825710257,-99999.0,'11133222,11111222,99999999' 
TABS,ioos:station:wmo:42050:1,2017-04-01T16:00:00Z,28.8425,-94.2433,2.0,245.9874822,7.028228795,-99999.0,'11133222,11111222,99999999' 
TABS,ioos:station:wmo:42050:1,2017-04-01T16:30:00Z,28.8425,-94.2433,2.0,246.0600644,7.615096848,-99999.0,'11133222,11111222,99999999' 
TABS,ioos:station:wmo:42050:1,2017-04-01T17:00:00Z,28.8425,-94.2433,2.0,269.672179,8.750142856,-99999.0,'11133222,11111222,99999999' 
TABS,ioos:station:wmo:42050:1,2017-04-01T17:30:00Z,28.8425,-94.2433,2.0,271.5856891,10.8441505,-99999.0,'11111222,11111222,99999999' 
TABS,ioos:station:wmo:42050:1,2017-04-01T18:00:00Z,28.8425,-94.2433,2.0,283.1802582,9.736467532,-99999.0,'11133222,11111222,99999999' 
TABS,ioos:station:wmo:42050:1,2017-04-01T18:30:00Z,28.8425,-94.2433,2.0,295.0695107,9.936000201,-99999.0,'11133222,11111222,99999999' 
TABS,ioos:station:wmo:42050:1,2017-04-01T19:00:00Z,28.8425,-94.2433,2.0,288.5017949,10.90354071,-99999.0,'11111222,11111222,99999999' 
TABS,ioos:station:wmo:42050:1,2017-04-01T19:30:00Z,28.8425,-94.2433,2.0,296.6316732,11.60072843,-99999.0,'11111222,11111222,99999999' 
TABS,ioos:station:wmo:42050:1,2017-04-01T20:00:00Z,28.8425,-94.2433,2.0,303.7278496,12.73314572,-99999.0,'11111222,11111222,99999999' 
TABS,ioos:station:wmo:42050:1,2017-04-01T20:30:00Z,28.8425,-94.2433,2.0,309.4981267,13.34803731,-99999.0,'11111222,11111222,99999999' 
TABS,ioos:station:wmo:42050:1,2017-04-01T21:00:00Z,28.8425,-94.2433,2.0,301.6369979,14.16504501,-99999.0,'11111222,11111222,99999999' 
TABS,ioos:station:wmo:42050:1,2017-04-01T21:30:00Z,28.8425,-94.2433,2.0,296.3864316,11.45319606,-99999.0,'11111222,11111222,99999999' 
TABS,ioos:station:wmo:42050:1,2017-04-01T22:00:00Z,28.8425,-94.2433,2.0,300.2311517,16.08788364,-99999.0,'11111222,11111222,99999999' 
TABS,ioos:station:wmo:42050:1,2017-04-01T22:30:00Z,28.8425,-94.2433,2.0,286.0845747,17.57808294,-99999.0,'11111222,11111222,99999999' 
TABS,ioos:station:wmo:42050:1,2017-04-01T23:00:00Z,28.8425,-94.2433,2.0,290.135467,14.81546827,-99999.0,'11111222,11111222,99999999' 
TABS,ioos:station:wmo:42050:1,2017-04-01T23:30:00Z,28.8425,-94.2433,2.0,281.6380392,16.45833527,-99999.0,'11111222,11111222,99999999' 
TABS,ioos:station:wmo:42050:1,2017-04-02T00:00:00Z,28.8425,-94.2433,2.0,271.3343138,15.89430716,-99999.0,'11111222,11111222,99999999' 
TABS,ioos:station:wmo:42050:1,2017-04-02T00:30:00Z,28.8425,-94.2433,2.0,270.4362483,17.09049443,-99999.0,'11111222,11111222,99999999' 
TABS,ioos:station:wmo:42050:1,2017-04-02T01:00:00Z,28.8425,-94.2433,2.0,262.1767871,19.24913764,-99999.0,'11111222,11111222,99999999' 
TABS,ioos:station:wmo:42050:1,2017-04-02T01:30:00Z,28.8425,-94.2433,2.0,252.6322801,20.53623383,-99999.0,'11111222,11111222,99999999' 
TABS,ioos:station:wmo:42050:1,2017-04-02T02:00:00Z,28.8425,-94.2433,2.0,255.7474168,24.4526154,-99999.0,'11111222,11111222,99999999' 
TABS,ioos:station:wmo:42050:1,2017-04-02T02:30:00Z,28.8425,-94.2433,2.0,251.8397421,22.39550848,-99999.0,'11111222,11111222,99999999' 
TABS,ioos:station:wmo:42050:1,2017-04-02T03:00:00Z,28.8425,-94.2433,2.0,244.4239724,27.19464102,-99999.0,'11111222,11111222,99999999' 
TABS,ioos:station:wmo:42050:1,2017-04-02T03:30:00Z,28.8425,-94.2433,2.0,250.9656922,26.92194087,-99999.0,'11111222,11111222,99999999' 
TABS,ioos:station:wmo:42050:1,2017-04-02T04:00:00Z,28.8425,-94.2433,2.0,249.1468412,30.50835459,-99999.0,'11111222,11111222,99999999' 
TABS,ioos:station:wmo:42050:1,2017-04-02T04:30:00Z,28.8425,-94.2433,2.0,252.1922824,32.04528202,-99999.0,'11111222,11111222,99999999' 
TABS,ioos:station:wmo:42050:1,2017-04-02T05:00:00Z,28.8425,-94.2433,2.0,253.2334156,34.42334237,-99999.0,'11111222,11111222,99999999' 
TABS,ioos:station:wmo:42050:1,2017-04-02T05:30:00Z,28.8425,-94.2433,2.0,258.0020925,34.15608438,-99999.0,'11111222,11111222,99999999' 
TABS,ioos:station:wmo:42050:1,2017-04-02T06:00:00Z,28.8425,-94.2433,2.0,259.6798157,30.86936669,-99999.0,'11111222,11111222,99999999' 
TABS,ioos:station:wmo:42050:1,2017-04-02T06:30:00Z,28.8425,-94.2433,2.0,270.6131852,26.18149728,-99999.0,'11111222,11111222,99999999' 
TABS,ioos:station:wmo:42050:1,2017-04-02T07:00:00Z,28.8425,-94.2433,2.0,278.154573,26.93228546,-99999.0,'11111222,11111222,99999999' 
TABS,ioos:station:wmo:42050:1,2017-04-02T07:30:00Z,28.8425,-94.2433,2.0,280.7455553,29.44630707,-99999.0,'11111222,11111222,99999999' 
TABS,ioos:station:wmo:42050:1,2017-04-02T08:00:00Z,28.8425,-94.2433,2.0,287.4741601,30.53925015,-99999.0,'11111222,11111222,99999999' 
TABS,ioos:station:wmo:42050:1,2017-04-02T08:30:00Z,28.8425,-94.2433,2.0,291.8171649,27.66117857,-99999.0,'11111222,11111222,99999999' 
TABS,ioos:station:wmo:42050:1,2017-04-02T09:00:00Z,28.8425,-94.2433,2.0,297.011656,29.28443443,-99999.0,'11111222,11111222,99999999' 
TABS,ioos:station:wmo:42050:1,2017-04-02T09:30:00Z,28.8425,-94.2433,2.0,296.6368891,25.09317437,-99999.0,'11111222,11111222,99999999' 
TABS,ioos:station:wmo:42050:1,2017-04-02T10:00:00Z,28.8425,-94.2433,2.0,300.0786508,26.85645546,-99999.0,'11111222,11111222,99999999' 
TABS,ioos:station:wmo:42050:1,2017-04-02T10:30:00Z,28.8425,-94.2433,2.0,308.3571341,26.28284992,-99999.0,'11111222,11111222,99999999' 
TABS,ioos:station:wmo:42050:1,2017-04-02T11:00:00Z,28.8425,-94.2433,2.0,304.0681362,25.24218097,-99999.0,'11111222,11111222,99999999' 
TABS,ioos:station:wmo:42050:1,2017-04-02T11:30:00Z,28.8425,-94.2433,2.0,308.2100892,22.6661973,-99999.0,'11111222,11111222,99999999' 
TABS,ioos:station:wmo:42050:1,2017-04-02T12:00:00Z,28.8425,-94.2433,2.0,303.5140481,21.6250896,-99999.0,'11111222,11111222,99999999' 
TABS,ioos:station:wmo:42050:1,2017-04-02T12:30:00Z,28.8425,-94.2433,2.0,315.171347,18.95054617,-99999.0,'11111222,11111222,99999999' 
TABS,ioos:station:wmo:42050:1,2017-04-02T13:00:00Z,28.8425,-94.2433,2.0,314.4707072,16.82986037,-99999.0,'11111222,11111222,99999999' 
TABS,ioos:station:wmo:42050:1,2017-04-02T13:30:00Z,28.8425,-94.2433,2.0,313.1545691,14.0504306,-99999.0,'11111222,11111222,99999999' 
TABS,ioos:station:wmo:42050:1,2017-04-02T14:00:00Z,28.8425,-94.2433,2.0,309.5819796,15.72560969,-99999.0,'11111222,11111222,99999999' 
TABS,ioos:station:wmo:42050:1,2017-04-02T14:30:00Z,28.8425,-94.2433,2.0,302.5711447,12.35275678,-99999.0,'11111222,11111222,99999999' 
TABS,ioos:station:wmo:42050:1,2017-04-02T15:00:00Z,28.8425,-94.2433,2.0,294.0998215,14.86572568,-99999.0,'11111222,11111222,99999999' 
TABS,ioos:station:wmo:42050:1,2017-04-02T15:30:00Z,28.8425,-94.2433,2.0,302.1915021,11.76921833,-99999.0,'11111222,11111222,99999999' 
TABS,ioos:station:wmo:42050:1,2017-04-02T16:00:00Z,28.8425,-94.2433,2.0,299.2386766,13.32805312,-99999.0,'11111222,11111222,99999999' 
TABS,ioos:station:wmo:42050:1,2017-04-02T16:30:00Z,28.8425,-94.2433,2.0,301.7904273,12.12964138,-99999.0,'11111222,11111222,99999999' 
TABS,ioos:station:wmo:42050:1,2017-04-02T17:00:00Z,28.8425,-94.2433,2.0,301.7412731,11.25305736,-99999.0,'11111222,11111222,99999999' 
TABS,ioos:station:wmo:42050:1,2017-04-02T17:30:00Z,28.8425,-94.2433,2.0,295.4979128,12.24236088,-99999.0,'11111222,11111222,99999999' 
TABS,ioos:station:wmo:42050:1,2017-04-02T18:00:00Z,28.8425,-94.2433,2.0,291.2753411,9.701133954,-99999.0,'11133222,11111222,99999999' 
TABS,ioos:station:wmo:42050:1,2017-04-02T18:30:00Z,28.8425,-94.2433,2.0,297.7381582,11.58078581,-99999.0,'11111222,11111222,99999999' 
TABS,ioos:station:wmo:42050:1,2017-04-02T19:00:00Z,28.8425,-94.2433,2.0,309.7212218,9.529795381,-99999.0,'11133222,11111222,99999999' 
TABS,ioos:station:wmo:42050:1,2017-04-02T19:30:00Z,28.8425,-94.2433,2.0,313.8903129,13.14050988,-99999.0,'11111222,11111222,99999999' 
TABS,ioos:station:wmo:42050:1,2017-04-02T20:00:00Z,28.8425,-94.2433,2.0,318.5709344,13.2840393,-99999.0,'11111222,11111222,99999999' 
TABS,ioos:station:wmo:42050:1,2017-04-02T20:30:00Z,28.8425,-94.2433,2.0,330.3162867,11.67167512,-99999.0,'11111222,11111222,99999999' 
TABS,ioos:station:wmo:42050:1,2017-04-02T21:00:00Z,28.8425,-94.2433,2.0,333.9650885,14.99124078,-99999.0,'11111222,11111222,99999999' 
TABS,ioos:station:wmo:42050:1,2017-04-02T21:30:00Z,28.8425,-94.2433,2.0,342.9816667,11.51420861,-99999.0,'11111222,11111222,99999999' 
TABS,ioos:station:wmo:42050:1,2017-04-02T22:00:00Z,28.8425,-94.2433,2.0,346.6737384,14.88070227,-99999.0,'11111222,11111222,99999999' 
TABS,ioos:station:wmo:42050:1,2017-04-02T22:30:00Z,28.8425,-94.2433,2.0,346.540698,11.08443954,-99999.0,'11111222,11111222,99999999' 
TABS,ioos:station:wmo:42050:1,2017-04-02T23:00:00Z,28.8425,-94.2433,2.0,326.8555318,8.742471047,-99999.0,'11133222,11111222,99999999' 
TABS,ioos:station:wmo:42050:1,2017-04-02T23:30:00Z,28.8425,-94.2433,2.0,334.8882198,5.820120274,-99999.0,'11133222,11111222,99999999' 
TABS,ioos:station:wmo:42050:1,2017-04-03T00:00:00Z,28.8425,-94.2433,2.0,313.9261482,4.526278825,-99999.0,'11133222,11111222,99999999' 
TABS,ioos:station:wmo:42050:1,2017-04-03T00:30:00Z,28.8425,-94.2433,2.0,288.9514897,1.755135322,-99999.0,'11133222,11111222,99999999' 
TABS,ioos:station:wmo:42050:1,2017-04-03T01:00:00Z,28.8425,-94.2433,2.0,294.420265,3.942714801,-99999.0,'11133222,11111222,99999999' 
TABS,ioos:station:wmo:42050:1,2017-04-03T01:30:00Z,28.8425,-94.2433,2.0,261.7963213,5.536650612,-99999.0,'11133222,11111222,99999999' 
TABS,ioos:station:wmo:42050:1,2017-04-03T02:00:00Z,28.8425,-94.2433,2.0,259.9033078,6.388935749,-99999.0,'11133222,11111222,99999999' 
TABS,ioos:station:wmo:42050:1,2017-04-03T02:30:00Z,28.8425,-94.2433,2.0,215.0455154,7.853979883,-99999.0,'11133222,11111222,99999999' 
TABS,ioos:station:wmo:42050:1,2017-04-03T03:00:00Z,28.8425,-94.2433,2.0,260.7558353,5.602758249,-99999.0,'11133222,11111222,99999999' 
TABS,ioos:station:wmo:42050:1,2017-04-03T03:30:00Z,28.8425,-94.2433,2.0,236.5471988,10.03183931,-99999.0,'11111222,11111222,99999999' 
TABS,ioos:station:wmo:42050:1,2017-04-03T04:00:00Z,28.8425,-94.2433,2.0,248.9313811,12.04518576,-99999.0,'11111222,11111222,99999999' 
TABS,ioos:station:wmo:42050:1,2017-04-03T04:30:00Z,28.8425,-94.2433,2.0,241.0341358,12.49269386,-99999.0,'11111222,11111222,99999999' 
TABS,ioos:station:wmo:42050:1,2017-04-03T05:00:00Z,28.8425,-94.2433,2.0,244.3171232,10.45262168,-99999.0,'11111222,11111222,99999999' 
TABS,ioos:station:wmo:42050:1,2017-04-03T05:30:00Z,28.8425,-94.2433,2.0,227.984381,9.098664737,-99999.0,'11133222,11111222,99999999' 
TABS,ioos:station:wmo:42050:1,2017-04-03T06:00:00Z,28.8425,-94.2433,2.0,224.0865254,10.20484689,-99999.0,'11111222,11111222,99999999' 
TABS,ioos:station:wmo:42050:1,2017-04-03T06:30:00Z,28.8425,-94.2433,2.0,228.128115,6.996642052,-99999.0,'11133222,11111222,99999999' 
TABS,ioos:station:wmo:42050:1,2017-04-03T07:00:00Z,28.8425,-94.2433,2.0,203.6196892,6.963368438,-99999.0,'11133222,11111222,99999999' 
TABS,ioos:station:wmo:42050:1,2017-04-03T07:30:00Z,28.8425,-94.2433,2.0,206.8702784,9.226147625,-99999.0,'11133222,11111222,99999999' 
TABS,ioos:station:wmo:42050:1,2017-04-03T08:00:00Z,28.8425,-94.2433,2.0,235.2235471,7.609080102,-99999.0,'11133222,11111222,99999999' 
TABS,ioos:station:wmo:42050:1,2017-04-03T08:30:00Z,28.8425,-94.2433,2.0,218.6237032,9.99668445,-99999.0,'11133222,11111222,99999999' 
TABS,ioos:station:wmo:42050:1,2017-04-03T09:00:00Z,28.8425,-94.2433,2.0,236.0261847,6.728595693,-99999.0,'11133222,11111222,99999999' 
TABS,ioos:station:wmo:42050:1,2017-04-03T09:30:00Z,28.8425,-94.2433,2.0,255.9633684,3.958181401,-99999.0,'11133222,11111222,99999999' 
TABS,ioos:station:wmo:42050:1,2017-04-03T10:00:00Z,28.8425,-94.2433,2.0,225.5501059,8.09674626,-99999.0,'11133222,11111222,99999999' 
TABS,ioos:station:wmo:42050:1,2017-04-03T10:30:00Z,28.8425,-94.2433,2.0,249.2005993,6.899637672,-99999.0,'11133222,11111222,99999999' 
TABS,ioos:station:wmo:42050:1,2017-04-03T11:00:00Z,28.8425,-94.2433,2.0,247.4611817,4.330773603,-99999.0,'11133222,11111222,99999999' 
TABS,ioos:station:wmo:42050:1,2017-04-03T11:30:00Z,28.8425,-94.2433,2.0,340.4735961,6.970925333,-99999.0,'11133222,11111222,99999999' 
TABS,ioos:station:wmo:42050:1,2017-04-03T12:00:00Z,28.8425,-94.2433,2.0,336.051587,8.425342723,-99999.0,'11133222,11111222,99999999' 
TABS,ioos:station:wmo:42050:1,2017-04-03T12:30:00Z,28.8425,-94.2433,2.0,352.1872277,9.710139031,-99999.0,'11133222,11111222,99999999' 
TABS,ioos:station:wmo:42050:1,2017-04-03T13:00:00Z,28.8425,-94.2433,2.0,13.18723953,7.364190383,-99999.0,'11133222,11111222,99999999' 
TABS,ioos:station:wmo:42050:1,2017-04-03T13:30:00Z,28.8425,-94.2433,2.0,0.895382076,9.601171803,-99999.0,'11133222,11111222,99999999' 
TABS,ioos:station:wmo:42050:1,2017-04-03T14:00:00Z,28.8425,-94.2433,2.0,31.69373594,9.155337241,-99999.0,'11133222,11111222,99999999' 
TABS,ioos:station:wmo:42050:1,2017-04-03T14:30:00Z,28.8425,-94.2433,2.0,23.74075948,9.438728728,-99999.0,'11133222,11111222,99999999' 
TABS,ioos:station:wmo:42050:1,2017-04-03T15:00:00Z,28.8425,-94.2433,2.0,51.03231927,6.392284412,-99999.0,'11133222,11111222,99999999' 
TABS,ioos:station:wmo:42050:1,2017-04-03T15:30:00Z,28.8425,-94.2433,2.0,71.15356041,3.962436119,-99999.0,'11133222,11111222,99999999' 
TABS,ioos:station:wmo:42050:1,2017-04-03T16:00:00Z,28.8425,-94.2433,2.0,86.45524183,4.528664262,-99999.0,'11133222,11111222,99999999' 
TABS,ioos:station:wmo:42050:1,2017-04-03T16:30:00Z,28.8425,-94.2433,2.0,113.7831654,7.463846193,-99999.0,'11133222,11111222,99999999' 
TABS,ioos:station:wmo:42050:1,2017-04-03T17:00:00Z,28.8425,-94.2433,2.0,141.2367648,11.26014654,-99999.0,'11111222,11111222,99999999' 
TABS,ioos:station:wmo:42050:1,2017-04-03T17:30:00Z,28.8425,-94.2433,2.0,159.7433747,9.849147171,-99999.0,'11133222,11111222,99999999' 
TABS,ioos:station:wmo:42050:1,2017-04-03T18:00:00Z,28.8425,-94.2433,2.0,149.5585436,9.592314632,-99999.0,'11133222,11111222,99999999' 
TABS,ioos:station:wmo:42050:1,2017-04-03T18:30:00Z,28.8425,-94.2433,2.0,149.8040976,10.87570228,-99999.0,'11111222,11111222,99999999' 
TABS,ioos:station:wmo:42050:1,2017-04-03T19:00:00Z,28.8425,-94.2433,2.0,159.41364,11.12008093,-99999.0,'11111222,11111222,99999999' 
TABS,ioos:station:wmo:42050:1,2017-04-03T19:30:00Z,28.8425,-94.2433,2.0,141.4576976,7.607239973,-99999.0,'11133222,11111222,99999999' 
TABS,ioos:station:wmo:42050:1,2017-04-03T20:00:00Z,28.8425,-94.2433,2.0,120.1350461,5.09918621,-99999.0,'11133222,11111222,99999999' 
TABS,ioos:station:wmo:42050:1,2017-04-03T20:30:00Z,28.8425,-94.2433,2.0,110.7351855,7.484817967,-99999.0,'11133222,11111222,99999999' 
TABS,ioos:station:wmo:42050:1,2017-04-03T21:00:00Z,28.8425,-94.2433,2.0,170.2288557,11.90265937,-99999.0,'11111222,11111222,99999999' 
TABS,ioos:station:wmo:42050:1,2017-04-03T21:30:00Z,28.8425,-94.2433,2.0,190.5135195,10.3029753,-99999.0,'11111222,11111222,99999999' 
TABS,ioos:station:wmo:42050:1,2017-04-03T22:00:00Z,28.8425,-94.2433,2.0,170.68693,3.151539306,-99999.0,'11133222,11111222,99999999' 
TABS,ioos:station:wmo:42050:1,2017-04-03T22:30:00Z,28.8425,-94.2433,2.0,18.88085427,5.284325879,-99999.0,'11133222,11111222,99999999' 
TABS,ioos:station:wmo:42050:1,2017-04-03T23:00:00Z,28.8425,-94.2433,2.0,42.33979672,3.503954908,-99999.0,'11133222,11111222,99999999' 
TABS,ioos:station:wmo:42050:1,2017-04-03T23:30:00Z,28.8425,-94.2433,2.0,42.15577696,7.837327351,-99999.0,'11133222,11111222,99999999' 
TABS,ioos:station:wmo:42050:1,2017-04-04T00:00:00Z,28.8425,-94.2433,2.0,16.30565695,9.616803003,-99999.0,'11133222,11111222,99999999' 
TABS,ioos:station:wmo:42050:1,2017-04-04T00:30:00Z,28.8425,-94.2433,2.0,35.32592315,10.68788099,-99999.0,'11111222,11111222,99999999' 
TABS,ioos:station:wmo:42050:1,2017-04-04T01:00:00Z,28.8425,-94.2433,2.0,40.03037612,9.79489663,-99999.0,'11133222,11111222,99999999' 
TABS,ioos:station:wmo:42050:1,2017-04-04T01:30:00Z,28.8425,-94.2433,2.0,54.84590457,10.42067176,-99999.0,'11111222,11111222,99999999' 
TABS,ioos:station:wmo:42050:1,2017-04-04T02:00:00Z,28.8425,-94.2433,2.0,61.69447452,16.04895635,-99999.0,'11111222,11111222,99999999' 
TABS,ioos:station:wmo:42050:1,2017-04-04T02:30:00Z,28.8425,-94.2433,2.0,68.050049,12.17237035,-99999.0,'11111222,11111222,99999999' 
TABS,ioos:station:wmo:42050:1,2017-04-04T03:00:00Z,28.8425,-94.2433,2.0,72.97697678,13.21917168,-99999.0,'11111222,11111222,99999999' 
TABS,ioos:station:wmo:42050:1,2017-04-04T03:30:00Z,28.8425,-94.2433,2.0,73.56462887,12.68845932,-99999.0,'11111222,11111222,99999999' 
TABS,ioos:station:wmo:42050:1,2017-04-04T04:00:00Z,28.8425,-94.2433,2.0,87.12717223,10.97379151,-99999.0,'11111222,11111222,99999999' 
TABS,ioos:station:wmo:42050:1,2017-04-04T04:30:00Z,28.8425,-94.2433,2.0,98.75498237,9.854826229,-99999.0,'11133222,11111222,99999999' 
TABS,ioos:station:wmo:42050:1,2017-04-04T05:00:00Z,28.8425,-94.2433,2.0,119.7253433,7.300684899,-99999.0,'11133222,11111222,99999999' 
TABS,ioos:station:wmo:42050:1,2017-04-04T05:30:00Z,28.8425,-94.2433,2.0,120.2376132,8.796868761,-99999.0,'11133222,11111222,99999999' 
TABS,ioos:station:wmo:42050:1,2017-04-04T06:00:00Z,28.8425,-94.2433,2.0,113.5700511,8.30268029,-99999.0,'11133222,11111222,99999999' 
TABS,ioos:station:wmo:42050:1,2017-04-04T06:30:00Z,28.8425,-94.2433,2.0,156.7583834,7.019643866,-99999.0,'11133222,11111222,99999999' 
TABS,ioos:station:wmo:42050:1,2017-04-04T07:00:00Z,28.8425,-94.2433,2.0,170.3982778,4.736348805,-99999.0,'11133222,11111222,99999999' 
TABS,ioos:station:wmo:42050:1,2017-04-04T07:30:00Z,28.8425,-94.2433,2.0,210.1306847,4.601793129,-99999.0,'11133222,11111222,99999999' 
TABS,ioos:station:wmo:42050:1,2017-04-04T08:00:00Z,28.8425,-94.2433,2.0,234.5424784,4.137257546,-99999.0,'11133222,11111222,99999999' 
TABS,ioos:station:wmo:42050:1,2017-04-04T08:30:00Z,28.8425,-94.2433,2.0,203.6176826,2.870435507,-99999.0,'11133222,11111222,99999999' 
TABS,ioos:station:wmo:42050:1,2017-04-04T09:00:00Z,28.8425,-94.2433,2.0,249.0916475,2.858198733,-99999.0,'11133222,11111222,99999999' 
TABS,ioos:station:wmo:42050:1,2017-04-04T09:30:00Z,28.8425,-94.2433,2.0,269.3134365,1.670119756,-99999.0,'11133222,11111222,99999999' 
TABS,ioos:station:wmo:42050:1,2017-04-04T10:00:00Z,28.8425,-94.2433,2.0,348.9417571,3.12808248,-99999.0,'11133222,11111222,99999999' 
TABS,ioos:station:wmo:42050:1,2017-04-04T10:30:00Z,28.8425,-94.2433,2.0,336.4536652,2.378003364,-99999.0,'11133222,11111222,99999999' 
TABS,ioos:station:wmo:42050:1,2017-04-04T11:00:00Z,28.8425,-94.2433,2.0,340.7795035,5.072770446,-99999.0,'11133222,11111222,99999999' 
TABS,ioos:station:wmo:42050:1,2017-04-04T11:30:00Z,28.8425,-94.2433,2.0,354.6412566,5.674803961,-99999.0,'11133222,11111222,99999999' 
TABS,ioos:station:wmo:42050:1,2017-04-04T12:00:00Z,28.8425,-94.2433,2.0,346.6045246,8.244301062,-99999.0,'11133222,11111222,99999999' 
TABS,ioos:station:wmo:42050:1,2017-04-04T12:30:00Z,28.8425,-94.2433,2.0,14.05354985,8.11281702,-99999.0,'11133222,11111222,99999999' 
TABS,ioos:station:wmo:42050:1,2017-04-04T13:00:00Z,28.8425,-94.2433,2.0,16.3699735,9.828417981,-99999.0,'11133222,11111222,99999999' 
TABS,ioos:station:wmo:42050:1,2017-04-04T13:30:00Z,28.8425,-94.2433,2.0,27.92787646,9.778854739,-99999.0,'11133222,11111222,99999999' 
TABS,ioos:station:wmo:42050:1,2017-04-04T14:00:00Z,28.8425,-94.2433,2.0,19.92149599,9.509006257,-99999.0,'11133222,11111222,99999999' 
TABS,ioos:station:wmo:42050:1,2017-04-04T14:30:00Z,28.8425,-94.2433,2.0,28.31503142,10.98421595,-99999.0,'11111222,11111222,99999999' 
TABS,ioos:station:wmo:42050:1,2017-04-04T15:00:00Z,28.8425,-94.2433,2.0,27.77168327,12.31899347,-99999.0,'11111222,11111222,99999999' 
TABS,ioos:station:wmo:42050:1,2017-04-04T15:30:00Z,28.8425,-94.2433,2.0,25.01180002,13.19765131,-99999.0,'11111222,11111222,99999999' 
TABS,ioos:station:wmo:42050:1,2017-04-04T16:00:00Z,28.8425,-94.2433,2.0,20.86417817,10.66962511,-99999.0,'11111222,11111222,99999999' 